Regional Weather Roundup
Issued by NWS

Home | Current Version | Previous Version | Graphics & Text | Print | Product List | Glossary On
Versions: 1 2 3 4 5 6 7 8 9 10 11 12 13 14 15 16 17 18 19 20 21 22 23 24 25 26 27 28 29 30 31 32 33 34 35 36 37 38 39 40 41 42 43 44 45 46 47 48 49 50
000
ASUS43 KDTX 300601
RWRMI
MICHIGAN HOURLY REGIONAL WEATHER ROUNDUP
NATIONAL WEATHER SERVICE DETROIT/PONTIAC MI
200 AM EDT SAT JUL 30 2016

NOTE: "FAIR" INDICATES FEW OR NO CLOUDS BELOW 12,000 FEET WITH NO
SIGNIFICANT WEATHER AND/OR OBSTRUCTION TO VISIBILITY.

MIZ047>049-052>055-059>063-066>070-074>076-081>083-300700-
SOUTHEAST LOWER MICHIGAN

CITY           SKY/WX    TMP DP  RH WIND       PRES   REMARKS
ADRIAN         CLOUDY    67  63  87 E8        29.96F
6HR MIN TEMP:  67; 6HR MAX TEMP:  74; 6HR PCP:  0.03;

ALMA           CLOUDY    65  61  87 NW6       30.03S
ANN ARBOR      MOCLDY    66  59  78 N5        29.97F
BAD AXE        CLOUDY    68  58  70 NE6       30.03F
CARO           CLOUDY    66  59  78 CALM      30.00F
DETROIT CITY   CLOUDY    69  61  75 N8        29.97F
6HR MIN TEMP:  69; 6HR MAX TEMP:  75;

DETROIT        LGT RAIN  69  58  67 N7        29.98F
6HR MIN TEMP:  69; 6HR MAX TEMP:  77; 6HR PCP: TRACE;

FLINT          CLOUDY    70  57  63 NE8       30.00F
6HR MIN TEMP:  70; 6HR MAX TEMP:  77;

GROSSE ILE     LGT RAIN  70  61  74 N5        29.96S
6HR MIN TEMP:  70; 6HR MAX TEMP:  75;

HILLSDALE      CLOUDY    66  64  90 CALM      29.97R
6HR MIN TEMP:  59; 6HR MAX TEMP:  87; 6HR PCP:  0.32;

HOWELL         CLOUDY    65  57  75 NE3       29.99F
6HR MIN TEMP:  65; 6HR MAX TEMP:  75;


CITY           SKY/WX    TMP DP  RH WIND       PRES   REMARKS
JACKSON        CLOUDY    64  60  87 CALM      29.98F
6HR MIN TEMP:  64; 6HR MAX TEMP:  75; 6HR PCP:  0.08;

LAMBERTVILLE   CLOUDY    70  63  78 NE3       29.96F
6HR MIN TEMP:  70; 6HR MAX TEMP:  75;

LANSING        CLOUDY    66  56  70 NE7       30.00F
6HR MIN TEMP:  66; 6HR MAX TEMP:  72;

LAPEER         MOCLDY    66  59  78 CALM      30.01S
6HR MIN TEMP:  64; 6HR MAX TEMP:  72;

MASON          CLOUDY    65  56  73 NE5       29.99F
MONROE         LGT RAIN  67  61  78 N7        29.95F
6HR MIN TEMP:  67; 6HR MAX TEMP:  74;

MT. CLEMENS    CLOUDY    67  62  81 N5        29.95F
6HR MIN TEMP:  67; 6HR MAX TEMP:  74;

PONTIAC        CLOUDY    68  59  73 N6        29.99S
6HR MIN TEMP:  67; 6HR MAX TEMP:  75;

PORT HOPE        N/A     71  62  73 NE17      30.02F
6HR MIN TEMP:  70; 6HR MAX TEMP:  71;

PORT HURON     CLOUDY    70  63  78 N3        29.98F
TRI CITIES     CLOUDY    69  60  73 NE8       30.02F
6HR MIN TEMP:  66; 6HR MAX TEMP:  70;

MIDLAND        CLOUDY    64  56  74 N3        30.02F
6HR MIN TEMP:  63; 6HR MAX TEMP:  69;

TROY           CLOUDY    71  58  65 N3        30.00S
SAGINAW HB     CLOUDY    66  59  77 N6        30.01F
$$
MIZ043>046-050>051-056>058-064>065-071>073-077>080-300700-
SOUTHWEST LOWER MICHIGAN

CITY           SKY/WX    TMP DP  RH WIND       PRES   REMARKS
BATTLE CREEK   LGT RAIN  64  60  87 NE8       29.98F
6HR MIN TEMP:  64; 6HR MAX TEMP:  72; 6HR PCP:  0.01;

BENTON HARBOR  CLOUDY    68  62  81 E7        29.95S
6HR MIN TEMP:  68; 6HR MAX TEMP:  72; 6HR PCP:  0.16;

BIG RAPIDS     PTCLDY    63  58  82 CALM      30.04S
6HR MIN TEMP:  63; 6HR MAX TEMP:  72;

COLDWATER      CLOUDY    69  68  98 NE3       29.96F
6HR MIN TEMP:  68; 6HR MAX TEMP:  75;

FREMONT        CLOUDY    65  58  76 E5        30.01F
HOLLAND        CLOUDY    65  59  81 NE9       29.99S
6HR MIN TEMP:  65; 6HR MAX TEMP:  74; 6HR PCP:  0.01;

GRAND RAPIDS   CLOUDY    63  58  83 NE14      30.01S
6HR MIN TEMP:  63; 6HR MAX TEMP:  72; 6HR PCP:  0.07;

IONIA          LGT RAIN  62  56  83 NE9       30.00F
6HR MIN TEMP:  62; 6HR MAX TEMP:  70; 6HR PCP:  0.04;

KALAMAZOO      CLOUDY    69  59  70 CALM      29.97S
6HR MIN TEMP:  69; 6HR MAX TEMP:  74; 6HR PCP: TRACE;

LUDINGTON      PTCLDY    62  59  90 E5        30.02S
6HR MIN TEMP:  62; 6HR MAX TEMP:  75;

MARSHALL       DRIZZLE   65  60  85 NE3       29.97F
6HR MIN TEMP:  64; 6HR MAX TEMP:  75; 6HR PCP:  0.03;

MOUNT PLEASANT CLOUDY    64  54  71 N3        30.03S
6HR MIN TEMP:  64; 6HR MAX TEMP:  71;

MUSKEGON       CLOUDY    68  57  68 E9        29.99F
6HR MIN TEMP:  66; 6HR MAX TEMP:  75;

SOUTH HAVEN    CLOUDY    66  63  89 E5        29.95F
$$
MIZ016>042-300700-
NORTHERN LOWER MICHIGAN

CITY           SKY/WX    TMP DP  RH WIND       PRES   REMARKS
ALPENA         CLOUDY    56  52  86 CALM      30.07F
6HR MIN TEMP:  55; 6HR MAX TEMP:  71;

BEAVER ISLAND  CLEAR     55  55  99 CALM      30.07F FOG
6HR MIN TEMP:  55; 6HR MAX TEMP:  73;

BELLAIRE       CLOUDY    53  52  94 CALM      30.05F
6HR MIN TEMP:  52; 6HR MAX TEMP:  76;

CADILLAC       PTCLDY    60  53  77 NE5       30.06S
CHARLEVOIX     CLEAR     60  52  74 CALM      30.09S
6HR MIN TEMP:  60; 6HR MAX TEMP:  75;

FRANKFORT      PTCLDY    67  54  63 E3        30.03F
GAYLORD        CLOUDY    60  50  69 NE3       30.08F
6HR MIN TEMP:  59; 6HR MAX TEMP:  74;

GRAYLING       PTCLDY    51  48  90 CALM      30.08S
HARBOR SPRINGS PTCLDY    59  55  84 CALM      30.07S
HOUGHTON LAKE  PTCLDY    57  51  80 NE5       30.06F
6HR MIN TEMP:  56; 6HR MAX TEMP:  72;

MANISTEE       PTCLDY    63  56  78 E6        30.02F
OSCODA         CLOUDY    57  55  92 NW3       30.04F
6HR MIN TEMP:  56; 6HR MAX TEMP:  69;

PELLSTON       PTCLDY    51  49  92 CALM      30.08S
6HR MIN TEMP:  51; 6HR MAX TEMP:  75;

ROGERS CITY    PTCLDY    53  50  87 CALM      30.09S
TRAVERSE CITY  CLOUDY    65  51  60 SE3       30.04S
6HR MIN TEMP:  63; 6HR MAX TEMP:  77;

$$
MIZ007>008-015-300700-
EASTERN UPPER MICHIGAN

CITY           SKY/WX    TMP DP  RH WIND       PRES   REMARKS
KINROSS        PTCLDY    57  54  89 W5        30.08F
6HR MIN TEMP:  57; 6HR MAX TEMP:  71;

MACKINAC ISLAN CLEAR     58  56  92 N5        30.08S
6HR MIN TEMP:  58; 6HR MAX TEMP:  72;

S. S. MARIE    CLEAR     59  55  87 CALM      30.07S
6HR MIN TEMP:  59; 6HR MAX TEMP:  73;

$$
MIZ004>006-011>014-085-300700-
CENTRAL UPPER MICHIGAN

CITY           SKY/WX    TMP DP  RH WIND       PRES   REMARKS
MANISTIQUE     CLEAR     55  53  95 N3        30.07S
6HR MIN TEMP:  55; 6HR MAX TEMP:  71;

ESCANABA       CLEAR     55  52  88 N3        30.05S
6HR MIN TEMP:  55; 6HR MAX TEMP:  73;

MENOMINEE      CLEAR    N/A N/A N/A N5        30.05S
$$
MIZ001>003-009>011-084-300700-
WESTERN UPPER MICHIGAN

CITY           SKY/WX    TMP DP  RH WIND       PRES   REMARKS
IRON MOUNTAIN  CLEAR     57  51  80 NW6       30.07F
6HR MIN TEMP:  55; 6HR MAX TEMP:  74;

HOUGHTON       CLEAR     57  55  93 E6        30.08S
6HR MIN TEMP:  54; 6HR MAX TEMP:  69;

COPPER HARBOR    N/A     57  52  83 VRB6      30.08S
6HR MIN TEMP:  57; 6HR MAX TEMP:  73;

IRONWOOD       CLEAR     57  54  88 E3        30.06R
6HR MIN TEMP:  55; 6HR MAX TEMP:  70;

$$

ABBREVIATIONS USED IN REMARKS
   TC - TEMPERATURE IN CELSIUS
  WCI - WIND CHILL INDEX
   HX - HEAT INDEX
  VSB - VISIBILITY





USA.gov is the U.S. government's official web portal to all federal, state and local government web resources and services.